Weather History for Air Force Academy, CO

Change the Weather History Date:

Tuesday, September 24, 2013

  Actual Average Record
Temperature  
Mean Temperature 52 °F -  
Max Temperature 69 °F 67 °F 80 °F (2001)
Min Temperature 35 °F 40 °F 32 °F (2000)
Degree Days  
Heating Degree Days 14    
Growing Degree Days 2 (Base 50)    
Moisture  
Dew Point 30 °F    
Average Humidity 39    
Maximum Humidity 79    
Minimum Humidity 19    
Precipitation  
Precipitation 0.00 in - - ()
Sea Level Pressure  
Sea Level Pressure 30.01 in    
Wind  
Wind Speed 9 mph (SE)    
Max Wind Speed 17 mph    
Max Gust Speed 25 mph    
Visibility 10 miles    
Events      
Averages and records for this station are not official NWS values.
T = Trace of Precipitation, MM = Missing Value Source: NWS Daily Summary

Daily Weather History Graph

Daily Weather History Graph

Search for Another Location

Airport:

Trip Planner

Search our weather history database for the weather conditions in past years. The results will help you decide how hot, cold, wet, or windy it might be!

Date:

Astronomy

Sep. 24, 2013 Rise Set
Actual Time 6:49 AM MDT 6:52 PM MDT
Civil Twilight 6:22 AM MDT 7:19 PM MDT
Nautical Twilight 5:51 AM MDT 7:50 PM MDT
Astronomical Twilight 5:19 AM MDT 8:21 PM MDT
Moon 10:14 PM MDT (9/24) 12:03 PM MDT (9/24)
Length of Visible Light 12h 56m
Length of Day
12h 03m
Waning Gibbous, 72% of the Moon is Illuminated
Sep 24
Waning Gibbous
Sep 26
Last Quarter
Oct 4
New
Oct 11
First Quarter
Oct 18
Full

Hourly Weather History & Observations

Time (MDT) Temp. Windchill Dew Point Humidity Pressure Visibility Wind Dir Wind Speed Gust Speed Precip Events Conditions
12:58 AM 53.1 °F - 23.5 °F 32% 30.16 in 10.0 mi North 11.5 mph 18.4 mph N/A   Clear
1:58 AM 46.2 °F 45.0 °F 30.0 °F 53% 30.01 in 10.0 mi Variable 3.5 mph - N/A   Clear
2:58 AM 47.3 °F - 28.8 °F 49% 30.01 in 10.0 mi NE 5.8 mph - N/A   Clear
3:58 AM 48.2 °F - 25.3 °F 41% 30.01 in 10.0 mi NNW 6.9 mph - N/A   Clear
4:58 AM 42.4 °F 39.6 °F 28.8 °F 58% 30.05 in 10.0 mi Variable 4.6 mph - N/A   Clear
5:58 AM 38.5 °F 32.7 °F 29.5 °F 70% 30.06 in 10.0 mi North 8.1 mph - N/A   Clear
6:58 AM 35.4 °F 29.7 °F 29.5 °F 79% 30.13 in 10.0 mi NNW 6.9 mph - N/A   Clear
7:58 AM 41.2 °F 35.5 °F 29.3 °F 63% 30.14 in 10.0 mi North 9.2 mph - N/A   Clear
8:58 AM 51.4 °F - 32.2 °F 48% 30.12 in 10.0 mi North 2.3 mph - N/A   Clear
9:58 AM 60.4 °F - 23.9 °F 25% 30.09 in 10.0 mi South 8.1 mph - N/A   Clear
10:58 AM 63.7 °F - 25.0 °F 23% 30.06 in 10.0 mi South 9.2 mph - N/A   Clear
11:58 AM 65.8 °F - 24.1 °F 21% 30.03 in 10.0 mi SSE 12.7 mph - N/A   Clear
12:58 PM 67.5 °F - 23.5 °F 19% 29.97 in 10.0 mi South 12.7 mph - N/A   Clear
1:58 PM 67.1 °F - 28.4 °F 23% 29.96 in 10.0 mi South 11.5 mph - N/A   Clear
2:13 PM 68.0 °F - 32.0 °F 26% 30.14 in 10.0 mi South 16.1 mph 25.3 mph N/A   Clear
2:31 PM 68.0 °F - 32.0 °F 26% 30.13 in 10.0 mi SSE 13.8 mph 20.7 mph N/A   Clear
2:58 PM 68.7 °F - 28.0 °F 22% 29.94 in 10.0 mi SSE 15.0 mph - N/A   Clear
2:59 PM 68.0 °F - 28.4 °F 23% 30.12 in 10.0 mi SSE 15.0 mph - N/A   Clear
3:58 PM 68.5 °F - 28.6 °F 22% 29.91 in 10.0 mi SSE 17.3 mph - N/A   Clear
4:58 PM 67.1 °F - 30.7 °F 26% 29.93 in 10.0 mi SSE 17.3 mph - N/A   Clear
5:58 PM 65.8 °F - 33.8 °F 30% 29.95 in 10.0 mi SSE 16.1 mph - N/A   Clear
6:58 PM 61.9 °F - 32.5 °F 33% 29.96 in 10.0 mi SSE 10.4 mph - N/A   Clear
7:58 PM 58.6 °F - 31.8 °F 36% 29.96 in 10.0 mi SSE 4.6 mph - N/A   Clear
8:58 PM 56.5 °F - 34.3 °F 43% 29.92 in 10.0 mi SSE 6.9 mph - N/A   Clear
9:58 PM 55.2 °F - 33.1 °F 43% 29.88 in 10.0 mi SE 6.9 mph - N/A   Clear
10:58 PM 50.9 °F - 36.7 °F 58% 29.87 in 10.0 mi East 3.5 mph - N/A   Clear
11:58 PM 45.5 °F 41.3 °F 36.3 °F 70% 29.85 in 10.0 mi North 8.1 mph - N/A   Clear